This is the latest recevied weather packets stored in our database for station/object W1ERB-13. If no packets are shown the sender has not sent any weather packets the latest 10 day(s).
| Time | Temp. | Humidity | Pressure | Rain* | Wind** | Luminosity | Snow |
|---|---|---|---|---|---|---|---|
| 1778023799 | 18.89° C | 62% | 1008 hPa | 0 mm | - | 16 W/m² | - |
| 1778023497 | 18.89° C | 62% | 1007.9 hPa | 0 mm | - | 20 W/m² | - |
| 1778023194 | 19.44° C | 62% | 1008 hPa | 0 mm | - | 26 W/m² | - |
| 1778022891 | 19.44° C | 61% | 1007.9 hPa | 0 mm | - | 30 W/m² | - |
| 1778022590 | 19.44° C | 62% | 1008 hPa | 0 mm | - | 33 W/m² | - |
| 1778022288 | 19.44° C | 61% | 1007.8 hPa | 0 mm | - | 34 W/m² | - |
| 1778021984 | 20° C | 61% | 1007.8 hPa | 0 mm | - | 32 W/m² | - |
| 1778021680 | 20° C | 60% | 1007.7 hPa | 0 mm | - | 34 W/m² | - |
| 1778021376 | 20° C | 60% | 1007.6 hPa | 0 mm | - | 38 W/m² | - |
| 1778021074 | 20° C | 60% | 1007.5 hPa | 0 mm | - | 44 W/m² | - |
| 1778020771 | 20° C | 61% | 1007.4 hPa | 0 mm | - | 47 W/m² | - |
| 1778020468 | 20.56° C | 60% | 1007.8 hPa | 0 mm | - | 50 W/m² | - |
| 1778020164 | 20.56° C | 59% | 1007.8 hPa | 0 mm | - | 52 W/m² | - |
| 1778019861 | 20.56° C | 59% | 1007.8 hPa | 0 mm | - | 55 W/m² | - |
| 1778019557 | 20.56° C | 58% | 1007.9 hPa | 0 mm | - | 62 W/m² | - |
| 1778019254 | 21.11° C | 58% | 1007.9 hPa | 0 mm | - | 64 W/m² | - |
| 1778018951 | 21.11° C | 59% | 1007.8 hPa | 0 mm | - | 66 W/m² | - |
| 1778018648 | 21.11° C | 58% | 1007.8 hPa | 0 mm | - | 70 W/m² | - |
| 1778018345 | 21.11° C | 58% | 1007.9 hPa | 0 mm | - | 74 W/m² | - |
| 1778018044 | 21.67° C | 57% | 1007.8 hPa | 0 mm | - | 80 W/m² | - |
| 1778017741 | 21.11° C | 57% | 1007.8 hPa | 0 mm | - | 90 W/m² | - |
| 1778017439 | 21.67° C | 58% | 1007.5 hPa | 0 mm | - | 116 W/m² | - |
| 1778017135 | 21.67° C | 56% | 1007.4 hPa | 0 mm | - | 118 W/m² | - |
| 1778016834 | 21.67° C | 57% | 1007.6 hPa | 0 mm | - | 137 W/m² | - |
| 1778016529 | 21.67° C | 57% | 1007.6 hPa | 0 mm | - | 147 W/m² | - |
* Rain latest hour (hover to see other rain measurements)
** Current wind speed in m/s (hover to see current wind gust speed)